Nome, AK

1:13 AM AKST on February 21, 2017 (GMT -0900)
Nome

Weather History for PAOM - November, 2011

Change the Weather History Date:

Thursday, November 24, 2011

  Actual Average Record
Temperature  
Mean Temperature -2 °F 14 °F  
Max Temperature 8 °F 21 °F 42 °F (1947)
Min Temperature -12 °F 8 °F -27 °F (1948)
Degree Days  
Heating Degree Days 67 51  
Month to date heating degree days 1291 1133  
Since 1 July heating degree days 4037 3783  
Cooling Degree Days 0 0  
Month to date cooling degree days 0 0  
Year to date cooling degree days 0 3  
Moisture  
Dew Point -11 °F    
Average Humidity 0    
Maximum Humidity 0    
Minimum Humidity 0    
Precipitation  
Precipitation 0.00 in 0.04 in 0.42 in (1950)
Month to date precipitation 0.49 1.01  
Year to date precipitation 16.28 15.52  
Snow  
Snow 0.00 in 0.50 in 14.00 in (1916)
Month to date snowfall 7.4 9.7  
Since 1 July snowfall 16.5 14.9  
Since 1 September snowfall 16.5 14.9  
Snow Depth 7.00 in    
Sea Level Pressure  
Sea Level Pressure 29.58 in    
Wind  
Wind Speed 4 mph (North)    
Max Wind Speed 25 mph    
Max Gust Speed 30 mph    
Visibility 10 miles    
Events      
T = Trace of Precipitation, MM = Missing Value Source: NWS Daily Summary

Daily Weather History Graph

Daily Weather History Graph

Search for Another Location

Airport or City:

Trip Planner

Search our weather history database for the weather conditions in past years. The results will help you decide how hot, cold, wet, or windy it might be!

Date:

Astronomy

Nov. 24, 2011 Rise Set
Actual Time 11:03 AM AKST 4:32 PM AKST
Civil Twilight 9:56 AM AKST 5:40 PM AKST
Nautical Twilight 8:51 AM AKST 6:44 PM AKST
Astronomical Twilight 7:53 AM AKST 7:43 PM AKST
Moon 10:56 AM AKST (11/24) 3:51 PM AKST (11/24)
Length of Visible Light 7h 44m
Length of Day
5h 29m
Waning Crescent, 0% of the Moon is Illuminated
Nov 24
Waning Crescent
Nov 24
New
Dec 2
First Quarter
Dec 10
Full
Dec 17
Last Quarter

Hourly Weather History & Observations

Time (AKST) Temp. Windchill Dew Point Humidity Pressure Visibility Wind Dir Wind Speed Gust Speed Precip Events Conditions
12:53 AM -6.0 °F - -13.0 °F 72% 29.49 in 10.0 mi Calm Calm - N/A   Clear
1:53 AM -7.1 °F -18.1 °F -15.0 °F 68% 29.49 in 10.0 mi North 4.6 mph - N/A   Scattered Clouds
3:53 AM -9.0 °F - -16.1 °F 71% 29.50 in 10.0 mi Calm Calm - N/A   Mostly Cloudy
4:53 AM -8.0 °F - -14.1 °F 75% 29.51 in 10.0 mi Calm Calm - N/A   Mostly Cloudy
5:53 AM -6.0 °F - -11.9 °F 75% 29.52 in 10.0 mi Calm Calm - N/A   Overcast
6:53 AM -7.1 °F - -13.0 °F 75% 29.52 in 10.0 mi Calm Calm - N/A   Mostly Cloudy
7:53 AM -7.1 °F - -13.0 °F 75% 29.52 in 10.0 mi Calm Calm - N/A   Scattered Clouds
8:53 AM -8.0 °F -22.5 °F -15.0 °F 71% 29.53 in 10.0 mi North 6.9 mph - N/A   Scattered Clouds
9:53 AM -8.0 °F -21.0 °F -14.1 °F 75% 29.54 in 10.0 mi NNE 5.8 mph - N/A   Scattered Clouds
10:53 AM -4.0 °F - -13.0 °F 65% 29.55 in 10.0 mi Calm Calm - N/A   Scattered Clouds
11:53 AM -9.0 °F -18.2 °F -15.0 °F 75% 29.57 in 10.0 mi NNE 3.5 mph - N/A   Scattered Clouds
12:53 PM -5.1 °F -15.8 °F -13.0 °F 69% 29.57 in 10.0 mi NE 4.6 mph - N/A   Scattered Clouds
1:53 PM -2.9 °F - -11.9 °F 65% 29.59 in 10.0 mi Calm Calm - N/A   Scattered Clouds
2:53 PM 3.0 °F -9.3 °F -9.0 °F 57% 29.60 in 10.0 mi WNW 6.9 mph - N/A   Mostly Cloudy
3:53 PM 5.0 °F -10.0 °F -9.0 °F 52% 29.60 in 10.0 mi North 10.4 mph - N/A   Mostly Cloudy
4:53 PM 6.1 °F -12.2 °F -8.0 °F 53% 29.61 in 10.0 mi NNW 16.1 mph - N/A   Scattered Clouds
5:53 PM 7.0 °F -12.1 °F -8.0 °F 51% 29.62 in 10.0 mi North 18.4 mph - N/A   Scattered Clouds
6:53 PM 5.0 °F - -9.0 °F 52% 29.64 in 10.0 mi Calm Calm - N/A   Scattered Clouds
7:53 PM 3.0 °F -6.4 °F -9.0 °F 57% 29.65 in 10.0 mi West 4.6 mph - N/A   Partly Cloudy
8:53 PM 3.9 °F -3.4 °F -8.0 °F 58% 29.66 in 10.0 mi WSW 3.5 mph - N/A   Partly Cloudy
9:53 PM 3.0 °F -8.0 °F -8.0 °F 60% 29.68 in 10.0 mi ENE 5.8 mph - N/A   Partly Cloudy
10:53 PM 3.0 °F - -7.1 °F 63% 29.70 in 10.0 mi Calm Calm - N/A   Partly Cloudy
11:53 PM -0.9 °F - -9.0 °F 69% 29.73 in 10.0 mi Calm Calm - N/A   Partly Cloudy